Zurück zum Katalog

STARLINK-32178

AktivKommunikationVLEO
NORAD 60413·PAYLOAD·🇺🇸 United States

Gestartet Aug 10, 2024 von Cape Canaveral Space Force Station

Loading…

Nächste Überflüge (nächste 24 Stunden)

TLE

AktuellSource: CelesTrak SupGP

Epoche: Sep 15, 2026, 02:10 UTC

1 60413C 24141R   26258.09076389 -.00009465  00000+0 -27959-3 0  2589
2 60413  53.1566  78.6626 0001262  93.3593  51.8236 15.34402750    17

Verfolge STARLINK-32178 in Echtzeit mit AllMySat

Download on the App Store